iso_date,epoch_date,Year,Hour,Min,DOY,POS_DOY,Lat,Lon,BP,Ts,Ta,has_bp,has_ts,has_ta,BuoyID,Buoy_Type,Buoy_Owner,Logistics,Hemisphere
2014-03-19T08:19:58Z,1395217198,2014,8,20,78.3472,78.4324,-52.60333,-47.08083,1005.7,-999.00,-999.0,yes,no,no,123280,SVPBD2,AOML,PHAROS_SG,South
2014-03-19T11:19:58Z,1395227998,2014,11,20,78.4722,78.4324,-52.60333,-47.08083,1007.4,-999.00,-999.0,yes,no,no,123280,SVPBD2,AOML,PHAROS_SG,South
2014-03-19T15:20:00Z,1395242401,2014,15,20,78.6389,78.4324,-52.60333,-47.08083,1007.3,-999.00,-999.0,yes,no,no,123280,SVPBD2,AOML,PHAROS_SG,South
2014-03-19T16:20:03Z,1395246004,2014,16,20,78.6806,78.4324,-52.60333,-47.08083,1007.2,-999.00,-999.0,yes,no,no,123280,SVPBD2,AOML,PHAROS_SG,South
2014-03-19T17:19:58Z,1395249598,2014,17,20,78.7222,78.4324,-52.60333,-47.08083,1006.8,-999.00,-999.0,yes,no,no,123280,SVPBD2,AOML,PHAROS_SG,South
2014-03-19T19:20:03Z,1395256804,2014,19,20,78.8056,78.4324,-52.60333,-47.08083,1006.2,-999.00,-999.0,yes,no,no,123280,SVPBD2,AOML,PHAROS_SG,South
2014-03-19T22:20:03Z,1395267604,2014,22,20,78.9306,78.4324,-52.60333,-47.08083,1004.1,-999.00,-999.0,yes,no,no,123280,SVPBD2,AOML,PHAROS_SG,South
2014-03-20T00:20:00Z,1395274801,2014,0,20,79.0139,78.4324,-52.60333,-47.08083,1001.5,-999.00,-999.0,yes,no,no,123280,SVPBD2,AOML,PHAROS_SG,South
2014-03-20T01:20:03Z,1395278404,2014,1,20,79.0556,78.4324,-52.60333,-47.08083,1000.0,-999.00,-999.0,yes,no,no,123280,SVPBD2,AOML,PHAROS_SG,South
2014-03-20T02:19:58Z,1395281998,2014,2,20,79.0972,78.4324,-52.60333,-47.08083,997.7,-999.00,-999.0,yes,no,no,123280,SVPBD2,AOML,PHAROS_SG,South
2014-03-20T03:20:00Z,1395285601,2014,3,20,79.1389,78.4324,-52.60333,-47.08083,995.7,-999.00,-999.0,yes,no,no,123280,SVPBD2,AOML,PHAROS_SG,South
2014-03-20T04:20:03Z,1395289204,2014,4,20,79.1806,78.4324,-52.60333,-47.08083,993.5,-999.00,-999.0,yes,no,no,123280,SVPBD2,AOML,PHAROS_SG,South
2014-03-20T07:20:03Z,1395300004,2014,7,20,79.3056,78.4324,-52.60333,-47.08083,985.7,-999.00,-999.0,yes,no,no,123280,SVPBD2,AOML,PHAROS_SG,South
2014-03-20T08:19:58Z,1395303598,2014,8,20,79.3472,79.4767,-52.49611,-46.83639,984.1,-999.00,-999.0,yes,no,no,123280,SVPBD2,AOML,PHAROS_SG,South
2014-03-20T09:20:00Z,1395307201,2014,9,20,79.3889,79.4767,-52.49611,-46.83639,983.8,-999.00,-999.0,yes,no,no,123280,SVPBD2,AOML,PHAROS_SG,South
2014-03-20T10:20:03Z,1395310804,2014,10,20,79.4306,79.4767,-52.49611,-46.83639,983.3,-999.00,-999.0,yes,no,no,123280,SVPBD2,AOML,PHAROS_SG,South
2014-03-20T11:19:58Z,1395314398,2014,11,20,79.4722,79.4767,-52.49611,-46.83639,983.0,-999.00,-999.0,yes,no,no,123280,SVPBD2,AOML,PHAROS_SG,South
2014-03-20T13:20:03Z,1395321604,2014,13,20,79.5556,79.4767,-52.49611,-46.83639,982.5,-999.00,-999.0,yes,no,no,123280,SVPBD2,AOML,PHAROS_SG,South
2014-03-20T14:19:58Z,1395325198,2014,14,20,79.5972,79.4767,-52.49611,-46.83639,982.1,-999.00,-999.0,yes,no,no,123280,SVPBD2,AOML,PHAROS_SG,South
2014-03-20T15:20:00Z,1395328801,2014,15,20,79.6389,79.4767,-52.49611,-46.83639,982.6,-999.00,-999.0,yes,no,no,123280,SVPBD2,AOML,PHAROS_SG,South
2014-03-20T16:20:03Z,1395332404,2014,16,20,79.6806,79.4767,-52.49611,-46.83639,982.1,-999.00,-999.0,yes,no,no,123280,SVPBD2,AOML,PHAROS_SG,South
2014-03-20T17:19:58Z,1395335998,2014,17,20,79.7222,79.797,-52.44556,-46.75278,981.5,-999.00,-999.0,yes,no,no,123280,SVPBD2,AOML,PHAROS_SG,South
2014-03-20T18:20:00Z,1395339601,2014,18,20,79.7639,79.797,-52.44556,-46.75278,981.5,-999.00,-999.0,yes,no,no,123280,SVPBD2,AOML,PHAROS_SG,South
2014-03-20T19:20:03Z,1395343204,2014,19,20,79.8056,79.797,-52.44556,-46.75278,981.2,-999.00,-999.0,yes,no,no,123280,SVPBD2,AOML,PHAROS_SG,South
2014-03-20T20:19:58Z,1395346798,2014,20,20,79.8472,79.797,-52.44556,-46.75278,980.9,-999.00,-999.0,yes,no,no,123280,SVPBD2,AOML,PHAROS_SG,South
2014-03-20T22:20:03Z,1395354004,2014,22,20,79.9306,79.797,-52.44556,-46.75278,980.9,-999.00,-999.0,yes,no,no,123280,SVPBD2,AOML,PHAROS_SG,South
2014-03-20T23:19:58Z,1395357598,2014,23,20,79.9722,79.797,-52.44556,-46.75278,980.2,-999.00,-999.0,yes,no,no,123280,SVPBD2,AOML,PHAROS_SG,South
2014-03-21T00:20:00Z,1395361201,2014,0,20,80.0139,79.797,-52.44556,-46.75278,980.8,-999.00,-999.0,yes,no,no,123280,SVPBD2,AOML,PHAROS_SG,South
2014-03-21T01:20:03Z,1395364804,2014,1,20,80.0556,79.797,-52.44556,-46.75278,981.4,-999.00,-999.0,yes,no,no,123280,SVPBD2,AOML,PHAROS_SG,South
2014-03-21T02:19:58Z,1395368398,2014,2,20,80.0972,79.797,-52.44556,-46.75278,981.6,-999.00,-999.0,yes,no,no,123280,SVPBD2,AOML,PHAROS_SG,South
2014-03-21T03:20:00Z,1395372001,2014,3,20,80.1389,79.797,-52.44556,-46.75278,981.8,-999.00,-999.0,yes,no,no,123280,SVPBD2,AOML,PHAROS_SG,South
2014-03-21T04:20:03Z,1395375604,2014,4,20,80.1806,79.797,-52.44556,-46.75278,982.4,-999.00,-999.0,yes,no,no,123280,SVPBD2,AOML,PHAROS_SG,South
2014-03-21T05:19:58Z,1395379198,2014,5,20,80.2222,79.797,-52.44556,-46.75278,983.1,-999.00,-999.0,yes,no,no,123280,SVPBD2,AOML,PHAROS_SG,South
2014-03-21T07:20:03Z,1395386404,2014,7,20,80.3056,79.797,-52.44556,-46.75278,983.6,-999.00,-999.0,yes,no,no,123280,SVPBD2,AOML,PHAROS_SG,South
2014-03-21T08:19:58Z,1395389998,2014,8,20,80.3472,79.797,-52.44556,-46.75278,984.6,-999.00,-999.0,yes,no,no,123280,SVPBD2,AOML,PHAROS_SG,South
2014-03-21T09:20:00Z,1395393601,2014,9,20,80.3889,79.797,-52.44556,-46.75278,985.2,-999.00,-999.0,yes,no,no,123280,SVPBD2,AOML,PHAROS_SG,South
2014-03-21T10:20:03Z,1395397204,2014,10,20,80.4306,79.797,-52.44556,-46.75278,985.5,-999.00,-999.0,yes,no,no,123280,SVPBD2,AOML,PHAROS_SG,South
2014-03-21T11:19:58Z,1395400798,2014,11,20,80.4722,79.797,-52.44556,-46.75278,985.8,-999.00,-999.0,yes,no,no,123280,SVPBD2,AOML,PHAROS_SG,South
2014-03-21T12:20:00Z,1395404401,2014,12,20,80.5139,79.797,-52.44556,-46.75278,985.8,-999.00,-999.0,yes,no,no,123280,SVPBD2,AOML,PHAROS_SG,South
2014-03-21T13:20:03Z,1395408004,2014,13,20,80.5556,79.797,-52.44556,-46.75278,986.1,-999.00,-999.0,yes,no,no,123280,SVPBD2,AOML,PHAROS_SG,South
2014-03-21T15:20:00Z,1395415201,2014,15,20,80.6389,79.797,-52.44556,-46.75278,986.4,-999.00,-999.0,yes,no,no,123280,SVPBD2,AOML,PHAROS_SG,South
2014-03-21T16:20:03Z,1395418804,2014,16,20,80.6806,79.797,-52.44556,-46.75278,986.3,-999.00,-999.0,yes,no,no,123280,SVPBD2,AOML,PHAROS_SG,South
2014-03-21T16:20:03Z,1395418804,2014,16,20,80.6806,80.8516,-52.36611,-46.31806,986.3,-999.00,-999.0,yes,no,no,123280,SVPBD2,AOML,PHAROS_SG,South
2014-03-21T17:19:58Z,1395422398,2014,17,20,80.7222,79.797,-52.44556,-46.75278,986.5,-999.00,-999.0,yes,no,no,123280,SVPBD2,AOML,PHAROS_SG,South
2014-03-21T18:20:00Z,1395426001,2014,18,20,80.7639,79.797,-52.44556,-46.75278,987.0,-999.00,-999.0,yes,no,no,123280,SVPBD2,AOML,PHAROS_SG,South
2014-03-21T19:20:03Z,1395429604,2014,19,20,80.8056,79.797,-52.44556,-46.75278,987.5,-999.00,-999.0,yes,no,no,123280,SVPBD2,AOML,PHAROS_SG,South
2014-03-21T19:20:03Z,1395429604,2014,19,20,80.8056,80.8516,-52.36611,-46.31806,987.5,-999.00,-999.0,yes,no,no,123280,SVPBD2,AOML,PHAROS_SG,South
2014-03-21T20:19:58Z,1395433198,2014,20,20,80.8472,79.797,-52.44556,-46.75278,988.2,-999.00,-999.0,yes,no,no,123280,SVPBD2,AOML,PHAROS_SG,South
2014-03-21T21:20:00Z,1395436801,2014,21,20,80.8889,80.8516,-52.36611,-46.31806,989.1,-999.00,-999.0,yes,no,no,123280,SVPBD2,AOML,PHAROS_SG,South
2014-03-21T23:19:58Z,1395443998,2014,23,20,80.9722,80.8516,-52.36611,-46.31806,990.8,-999.00,-999.0,yes,no,no,123280,SVPBD2,AOML,PHAROS_SG,South
2014-03-22T00:20:00Z,1395447601,2014,0,20,81.0139,80.8516,-52.36611,-46.31806,991.3,-999.00,-999.0,yes,no,no,123280,SVPBD2,AOML,PHAROS_SG,South
2014-03-22T01:20:03Z,1395451204,2014,1,20,81.0556,80.8516,-52.36611,-46.31806,991.5,-999.00,-999.0,yes,no,no,123280,SVPBD2,AOML,PHAROS_SG,South
2014-03-23T00:20:00Z,1395534001,2014,0,20,82.0139,82.1835,-52.27472,-45.80222,981.4,-999.00,-999.0,yes,no,no,123280,SVPBD2,AOML,PHAROS_SG,South
2014-03-23T01:20:03Z,1395537604,2014,1,20,82.0556,81.1959,-52.33,-46.22917,981.3,-999.00,-999.0,yes,no,no,123280,SVPBD2,AOML,PHAROS_SG,South
2014-03-23T02:19:58Z,1395541198,2014,2,20,82.0972,82.1835,-52.27472,-45.80222,980.9,-999.00,-999.0,yes,no,no,123280,SVPBD2,AOML,PHAROS_SG,South
2014-03-23T03:20:00Z,1395544801,2014,3,20,82.1389,82.1835,-52.27472,-45.80222,980.5,-999.00,-999.0,yes,no,no,123280,SVPBD2,AOML,PHAROS_SG,South
2014-03-23T05:19:58Z,1395551998,2014,5,20,82.2222,82.1835,-52.27472,-45.80222,977.9,-999.00,-999.0,yes,no,no,123280,SVPBD2,AOML,PHAROS_SG,South
2014-03-23T07:20:03Z,1395559204,2014,7,20,82.3056,81.1959,-52.33,-46.22917,976.9,-999.00,-999.0,yes,no,no,123280,SVPBD2,AOML,PHAROS_SG,South
2014-03-23T08:19:58Z,1395562798,2014,8,20,82.3472,82.1835,-52.27472,-45.80222,976.7,-999.00,-999.0,yes,no,no,123280,SVPBD2,AOML,PHAROS_SG,South
2014-03-23T10:20:03Z,1395570004,2014,10,20,82.4306,82.1835,-52.27472,-45.80222,976.5,-999.00,-999.0,yes,no,no,123280,SVPBD2,AOML,PHAROS_SG,South
2014-03-23T11:19:58Z,1395573598,2014,11,20,82.4722,82.1835,-52.27472,-45.80222,976.2,-999.00,-999.0,yes,no,no,123280,SVPBD2,AOML,PHAROS_SG,South
2014-03-23T13:20:03Z,1395580804,2014,13,20,82.5556,82.7016,-52.25889,-45.60778,977.6,-999.00,-999.0,yes,no,no,123280,SVPBD2,AOML,PHAROS_SG,South
2014-03-23T14:19:58Z,1395584398,2014,14,20,82.5972,82.7016,-52.25889,-45.60778,978.3,-999.00,-999.0,yes,no,no,123280,SVPBD2,AOML,PHAROS_SG,South
2014-03-23T15:20:00Z,1395588001,2014,15,20,82.6389,82.7016,-52.25889,-45.60778,978.8,-999.00,-999.0,yes,no,no,123280,SVPBD2,AOML,PHAROS_SG,South
2014-03-23T16:20:03Z,1395591604,2014,16,20,82.6806,82.7016,-52.25889,-45.60778,979.1,-999.00,-999.0,yes,no,no,123280,SVPBD2,AOML,PHAROS_SG,South
2014-03-23T17:19:58Z,1395595198,2014,17,20,82.7222,82.7016,-52.25889,-45.60778,980.1,-999.00,-999.0,yes,no,no,123280,SVPBD2,AOML,PHAROS_SG,South
2014-03-23T18:20:00Z,1395598801,2014,18,20,82.7639,82.7016,-52.25889,-45.60778,980.5,-999.00,-999.0,yes,no,no,123280,SVPBD2,AOML,PHAROS_SG,South
2014-03-23T19:20:03Z,1395602404,2014,19,20,82.8056,82.7016,-52.25889,-45.60778,981.5,-999.00,-999.0,yes,no,no,123280,SVPBD2,AOML,PHAROS_SG,South
2014-03-23T20:19:58Z,1395605998,2014,20,20,82.8472,82.7016,-52.25889,-45.60778,981.8,-999.00,-999.0,yes,no,no,123280,SVPBD2,AOML,PHAROS_SG,South
2014-03-23T21:20:00Z,1395609601,2014,21,20,82.8889,82.7016,-52.25889,-45.60778,982.0,-999.00,-999.0,yes,no,no,123280,SVPBD2,AOML,PHAROS_SG,South
2014-03-23T22:20:03Z,1395613204,2014,22,20,82.9306,82.7016,-52.25889,-45.60778,982.4,-999.00,-999.0,yes,no,no,123280,SVPBD2,AOML,PHAROS_SG,South
2014-03-23T23:19:58Z,1395616798,2014,23,20,82.9722,83.1148,-52.25361,-45.52278,982.5,-999.00,-999.0,yes,no,no,123280,SVPBD2,AOML,PHAROS_SG,South
2014-03-24T00:20:00Z,1395620401,2014,0,20,83.0139,83.1148,-52.25361,-45.52278,982.6,-999.00,-999.0,yes,no,no,123280,SVPBD2,AOML,PHAROS_SG,South
2014-03-24T01:20:03Z,1395624004,2014,1,20,83.0556,83.1148,-52.25361,-45.52278,982.9,-999.00,-999.0,yes,no,no,123280,SVPBD2,AOML,PHAROS_SG,South
2014-03-24T02:19:58Z,1395627598,2014,2,20,83.0972,83.1148,-52.25361,-45.52278,983.5,-999.00,-999.0,yes,no,no,123280,SVPBD2,AOML,PHAROS_SG,South
2014-03-24T03:20:00Z,1395631201,2014,3,20,83.1389,83.1525,-52.24944,-45.45972,984.9,-999.00,-999.0,yes,no,no,123280,SVPBD2,AOML,PHAROS_SG,South
2014-03-24T04:20:03Z,1395634804,2014,4,20,83.1806,83.1525,-52.24944,-45.45972,987.3,-999.00,-999.0,yes,no,no,123280,SVPBD2,AOML,PHAROS_SG,South
2014-03-24T05:19:58Z,1395638398,2014,5,20,83.2222,83.1525,-52.24944,-45.45972,989.4,-999.00,-999.0,yes,no,no,123280,SVPBD2,AOML,PHAROS_SG,South
2014-03-24T06:20:00Z,1395642001,2014,6,20,83.2639,83.1525,-52.24944,-45.45972,991.5,-999.00,-999.0,yes,no,no,123280,SVPBD2,AOML,PHAROS_SG,South
2014-03-24T09:20:00Z,1395652801,2014,9,20,83.3889,83.1525,-52.24944,-45.45972,996.7,-999.00,-999.0,yes,no,no,123280,SVPBD2,AOML,PHAROS_SG,South
2014-03-24T11:19:58Z,1395659998,2014,11,20,83.4722,83.1525,-52.24944,-45.45972,999.3,-999.00,-999.0,yes,no,no,123280,SVPBD2,AOML,PHAROS_SG,South
2014-03-24T13:20:03Z,1395667204,2014,13,20,83.5556,83.1525,-52.24944,-45.45972,1000.5,-999.00,-999.0,yes,no,no,123280,SVPBD2,AOML,PHAROS_SG,South
2014-03-24T14:19:58Z,1395670798,2014,14,20,83.5972,83.1525,-52.24944,-45.45972,1000.5,-999.00,-999.0,yes,no,no,123280,SVPBD2,AOML,PHAROS_SG,South
2014-03-24T15:20:00Z,1395674401,2014,15,20,83.6389,83.1525,-52.24944,-45.45972,1000.3,-999.00,-999.0,yes,no,no,123280,SVPBD2,AOML,PHAROS_SG,South
2014-03-24T17:19:58Z,1395681598,2014,17,20,83.7222,83.1525,-52.24944,-45.45972,999.5,-999.00,-999.0,yes,no,no,123280,SVPBD2,AOML,PHAROS_SG,South
2014-03-24T18:20:00Z,1395685201,2014,18,20,83.7639,83.1525,-52.24944,-45.45972,999.0,-999.00,-999.0,yes,no,no,123280,SVPBD2,AOML,PHAROS_SG,South
2014-03-24T19:20:03Z,1395688804,2014,19,20,83.8056,83.1525,-52.24944,-45.45972,998.8,-999.00,-999.0,yes,no,no,123280,SVPBD2,AOML,PHAROS_SG,South
2014-03-24T20:19:58Z,1395692398,2014,20,20,83.8472,83.1525,-52.24944,-45.45972,998.6,-999.00,-999.0,yes,no,no,123280,SVPBD2,AOML,PHAROS_SG,South
2014-03-24T23:19:58Z,1395703198,2014,23,20,83.9722,83.1525,-52.24944,-45.45972,999.9,-999.00,-999.0,yes,no,no,123280,SVPBD2,AOML,PHAROS_SG,South
2014-03-25T00:20:00Z,1395706801,2014,0,20,84.0139,83.1525,-52.24944,-45.45972,1000.4,-999.00,-999.0,yes,no,no,123280,SVPBD2,AOML,PHAROS_SG,South
2014-03-25T01:20:03Z,1395710404,2014,1,20,84.0556,83.1525,-52.24944,-45.45972,1000.4,-999.00,-999.0,yes,no,no,123280,SVPBD2,AOML,PHAROS_SG,South
2014-03-25T02:19:58Z,1395713998,2014,2,20,84.0972,83.1525,-52.24944,-45.45972,1000.3,-999.00,-999.0,yes,no,no,123280,SVPBD2,AOML,PHAROS_SG,South
2014-03-25T03:20:00Z,1395717601,2014,3,20,84.1389,83.1525,-52.24944,-45.45972,999.9,-999.00,-999.0,yes,no,no,123280,SVPBD2,AOML,PHAROS_SG,South
2014-03-25T04:20:03Z,1395721204,2014,4,20,84.1806,83.1525,-52.24944,-45.45972,999.4,-999.00,-999.0,yes,no,no,123280,SVPBD2,AOML,PHAROS_SG,South
2014-03-25T05:19:58Z,1395724798,2014,5,20,84.2222,83.1525,-52.24944,-45.45972,998.7,-999.00,-999.0,yes,no,no,123280,SVPBD2,AOML,PHAROS_SG,South
2014-03-25T07:20:03Z,1395732004,2014,7,20,84.3056,84.4396,-52.09833,-45.17694,998.3,-999.00,-999.0,yes,no,no,123280,SVPBD2,AOML,PHAROS_SG,South
2014-03-25T08:19:58Z,1395735598,2014,8,20,84.3472,84.4396,-52.0975,-45.17389,999.5,-999.00,-999.0,yes,no,no,123280,SVPBD2,AOML,PHAROS_SG,South
2014-03-25T09:20:00Z,1395739201,2014,9,20,84.3889,84.4396,-52.0975,-45.17389,1000.7,-999.00,-999.0,yes,no,no,123280,SVPBD2,AOML,PHAROS_SG,South
2014-03-25T10:20:03Z,1395742804,2014,10,20,84.4306,84.4396,-52.0975,-45.17389,1001.8,-999.00,-999.0,yes,no,no,123280,SVPBD2,AOML,PHAROS_SG,South
2014-03-25T11:19:58Z,1395746398,2014,11,20,84.4722,84.4396,-52.0975,-45.17389,1002.9,-999.00,-999.0,yes,no,no,123280,SVPBD2,AOML,PHAROS_SG,South
2014-03-25T12:20:00Z,1395750001,2014,12,20,84.5139,84.5171,-52.0775,-45.13972,1003.9,-999.00,-999.0,yes,no,no,123280,SVPBD2,AOML,PHAROS_SG,South
2014-03-25T16:20:03Z,1395764404,2014,16,20,84.6806,84.5473,-52.05417,-45.10361,1005.6,-999.00,-999.0,yes,no,no,123280,SVPBD2,AOML,PHAROS_SG,South
2014-03-25T17:19:58Z,1395767998,2014,17,20,84.7222,84.5473,-52.05417,-45.10361,1006.0,-999.00,-999.0,yes,no,no,123280,SVPBD2,AOML,PHAROS_SG,South
2014-03-25T18:20:00Z,1395771601,2014,18,20,84.7639,84.9094,-51.985,-45.11278,1006.4,-999.00,-999.0,yes,no,no,123280,SVPBD2,AOML,PHAROS_SG,South
2014-03-25T19:20:03Z,1395775204,2014,19,20,84.8056,84.5473,-52.05417,-45.10361,1006.9,-999.00,-999.0,yes,no,no,123280,SVPBD2,AOML,PHAROS_SG,South
2014-03-25T21:20:00Z,1395782401,2014,21,20,84.8889,84.9094,-51.985,-45.11278,1008.7,-999.00,-999.0,yes,no,no,123280,SVPBD2,AOML,PHAROS_SG,South
2014-03-25T22:20:03Z,1395786004,2014,22,20,84.9306,84.9094,-51.985,-45.11278,1009.1,-999.00,-999.0,yes,no,no,123280,SVPBD2,AOML,PHAROS_SG,South
2014-03-25T23:19:58Z,1395789598,2014,23,20,84.9722,84.9094,-51.985,-45.11278,1009.6,-999.00,-999.0,yes,no,no,123280,SVPBD2,AOML,PHAROS_SG,South
2014-03-26T00:20:00Z,1395793201,2014,0,20,85.0139,84.9094,-51.985,-45.11278,1009.6,-999.00,-999.0,yes,no,no,123280,SVPBD2,AOML,PHAROS_SG,South
2014-03-26T01:20:03Z,1395796804,2014,1,20,85.0556,84.9094,-51.985,-45.11278,1009.1,-999.00,-999.0,yes,no,no,123280,SVPBD2,AOML,PHAROS_SG,South
2014-03-26T02:19:58Z,1395800398,2014,2,20,85.0972,85.2291,-51.95194,-44.98722,1008.5,-999.00,-999.0,yes,no,no,123280,SVPBD2,AOML,PHAROS_SG,South
2014-03-26T03:20:00Z,1395804001,2014,3,20,85.1389,85.2291,-51.95194,-44.98722,1007.7,-999.00,-999.0,yes,no,no,123280,SVPBD2,AOML,PHAROS_SG,South
2014-03-26T04:20:03Z,1395807604,2014,4,20,85.1806,85.2291,-51.95194,-44.98722,1006.9,-999.00,-999.0,yes,no,no,123280,SVPBD2,AOML,PHAROS_SG,South
2014-03-26T05:19:58Z,1395811198,2014,5,20,85.2222,85.2291,-51.95194,-44.98722,1005.4,-999.00,-999.0,yes,no,no,123280,SVPBD2,AOML,PHAROS_SG,South
2014-03-26T06:20:00Z,1395814801,2014,6,20,85.2639,84.9094,-51.985,-45.11278,1004.1,-999.00,-999.0,yes,no,no,123280,SVPBD2,AOML,PHAROS_SG,South
2014-03-26T07:20:03Z,1395818404,2014,7,20,85.3056,85.2291,-51.95194,-44.98722,1002.8,-999.00,-999.0,yes,no,no,123280,SVPBD2,AOML,PHAROS_SG,South
2014-03-26T08:19:58Z,1395821998,2014,8,20,85.3472,85.2291,-51.95194,-44.98722,1001.2,-999.00,-999.0,yes,no,no,123280,SVPBD2,AOML,PHAROS_SG,South
2014-03-26T09:20:00Z,1395825601,2014,9,20,85.3889,85.2291,-51.95194,-44.98722,1000.4,-999.00,-999.0,yes,no,no,123280,SVPBD2,AOML,PHAROS_SG,South
2014-03-26T10:20:03Z,1395829204,2014,10,20,85.4306,85.2291,-51.95194,-44.98722,999.1,-999.00,-999.0,yes,no,no,123280,SVPBD2,AOML,PHAROS_SG,South
2014-03-26T11:19:58Z,1395832798,2014,11,20,85.4722,85.2291,-51.95194,-44.98722,999.0,-999.00,-999.0,yes,no,no,123280,SVPBD2,AOML,PHAROS_SG,South
2014-03-26T12:20:00Z,1395836401,2014,12,20,85.5139,85.2291,-51.95194,-44.98722,998.8,-999.00,-999.0,yes,no,no,123280,SVPBD2,AOML,PHAROS_SG,South
2014-03-26T14:19:58Z,1395843598,2014,14,20,85.5972,85.752,-51.87417,-44.92083,998.7,-999.00,-999.0,yes,no,no,123280,SVPBD2,AOML,PHAROS_SG,South
2014-03-26T15:20:00Z,1395847201,2014,15,20,85.6389,85.752,-51.87417,-44.92083,998.5,-999.00,-999.0,yes,no,no,123280,SVPBD2,AOML,PHAROS_SG,South
2014-03-26T16:20:03Z,1395850804,2014,16,20,85.6806,85.752,-51.87417,-44.92083,998.5,-999.00,-999.0,yes,no,no,123280,SVPBD2,AOML,PHAROS_SG,South
2014-03-26T17:19:58Z,1395854398,2014,17,20,85.7222,85.752,-51.87417,-44.92083,998.4,-999.00,-999.0,yes,no,no,123280,SVPBD2,AOML,PHAROS_SG,South
2014-03-26T18:20:00Z,1395858001,2014,18,20,85.7639,85.752,-51.87417,-44.92083,998.4,-999.00,-999.0,yes,no,no,123280,SVPBD2,AOML,PHAROS_SG,South
2014-03-26T19:20:03Z,1395861604,2014,19,20,85.8056,85.752,-51.87417,-44.92083,998.4,-999.00,-999.0,yes,no,no,123280,SVPBD2,AOML,PHAROS_SG,South
2014-03-26T21:20:00Z,1395868801,2014,21,20,85.8889,85.752,-51.87417,-44.92083,999.2,-999.00,-999.0,yes,no,no,123280,SVPBD2,AOML,PHAROS_SG,South
2014-03-26T22:20:03Z,1395872404,2014,22,20,85.9306,85.752,-51.87417,-44.92083,999.1,-999.00,-999.0,yes,no,no,123280,SVPBD2,AOML,PHAROS_SG,South
2014-03-26T23:19:58Z,1395875998,2014,23,20,85.9722,85.752,-51.87417,-44.92083,999.0,-999.00,-999.0,yes,no,no,123280,SVPBD2,AOML,PHAROS_SG,South
2014-03-27T00:20:00Z,1395879601,2014,0,20,86.0139,85.752,-51.87417,-44.92083,999.5,-999.00,-999.0,yes,no,no,123280,SVPBD2,AOML,PHAROS_SG,South
2014-03-27T01:20:03Z,1395883204,2014,1,20,86.0556,86.2309,-51.795,-44.90472,999.4,-999.00,-999.0,yes,no,no,123280,SVPBD2,AOML,PHAROS_SG,South
2014-03-27T02:19:58Z,1395886798,2014,2,20,86.0972,86.2309,-51.795,-44.90472,999.9,-999.00,-999.0,yes,no,no,123280,SVPBD2,AOML,PHAROS_SG,South
2014-03-27T03:20:00Z,1395890401,2014,3,20,86.1389,86.2309,-51.795,-44.90472,1000.0,-999.00,-999.0,yes,no,no,123280,SVPBD2,AOML,PHAROS_SG,South
2014-03-27T04:20:03Z,1395894004,2014,4,20,86.1806,86.2309,-51.795,-44.90472,1000.5,-999.00,-999.0,yes,no,no,123280,SVPBD2,AOML,PHAROS_SG,South
2014-03-27T05:19:58Z,1395897598,2014,5,20,86.2222,86.2309,-51.795,-44.90472,1001.1,-999.00,-999.0,yes,no,no,123280,SVPBD2,AOML,PHAROS_SG,South
2014-03-27T06:20:00Z,1395901201,2014,6,20,86.2639,86.2316,-51.795,-44.91972,1001.7,-999.00,-999.0,yes,no,no,123280,SVPBD2,AOML,PHAROS_SG,South
2014-03-27T07:20:03Z,1395904804,2014,7,20,86.3056,86.3262,-51.78917,-44.92083,1002.5,-999.00,-999.0,yes,no,no,123280,SVPBD2,AOML,PHAROS_SG,South
2014-03-27T08:19:58Z,1395908398,2014,8,20,86.3472,86.3262,-51.78917,-44.92083,1002.8,-999.00,-999.0,yes,no,no,123280,SVPBD2,AOML,PHAROS_SG,South
2014-03-27T09:20:00Z,1395912001,2014,9,20,86.3889,86.3262,-51.78917,-44.92083,1003.9,-999.00,-999.0,yes,no,no,123280,SVPBD2,AOML,PHAROS_SG,South
2014-03-27T10:20:03Z,1395915604,2014,10,20,86.4306,86.465,-51.72944,-44.88306,1005.3,-999.00,-999.0,yes,no,no,123280,SVPBD2,AOML,PHAROS_SG,South
2014-03-27T11:19:58Z,1395919198,2014,11,20,86.4722,86.465,-51.72944,-44.88306,1006.1,-999.00,-999.0,yes,no,no,123280,SVPBD2,AOML,PHAROS_SG,South
2014-03-27T12:20:00Z,1395922801,2014,12,20,86.5139,86.5563,-51.71556,-44.89083,1006.1,-999.00,-999.0,yes,no,no,123280,SVPBD2,AOML,PHAROS_SG,South
2014-03-27T13:20:03Z,1395926404,2014,13,20,86.5556,86.5563,-51.71556,-44.89083,1006.7,-999.00,-999.0,yes,no,no,123280,SVPBD2,AOML,PHAROS_SG,South
2014-03-27T14:19:58Z,1395929998,2014,14,20,86.5972,86.5563,-51.71556,-44.89083,1006.3,-999.00,-999.0,yes,no,no,123280,SVPBD2,AOML,PHAROS_SG,South
2014-03-27T15:20:00Z,1395933601,2014,15,20,86.6389,86.5563,-51.71556,-44.89083,1006.4,-999.00,-999.0,yes,no,no,123280,SVPBD2,AOML,PHAROS_SG,South
2014-03-27T16:20:03Z,1395937204,2014,16,20,86.6806,86.5563,-51.71556,-44.89083,1005.9,-999.00,-999.0,yes,no,no,123280,SVPBD2,AOML,PHAROS_SG,South
2014-03-27T16:20:03Z,1395937204,2014,16,20,86.6806,86.7314,-51.71306,-44.93611,1005.9,-999.00,-999.0,yes,no,no,123280,SVPBD2,AOML,PHAROS_SG,South
2014-03-27T17:19:58Z,1395940798,2014,17,20,86.7222,86.5563,-51.71556,-44.89083,1005.2,-999.00,-999.0,yes,no,no,123280,SVPBD2,AOML,PHAROS_SG,South
2014-03-27T17:19:58Z,1395940798,2014,17,20,86.7222,86.7314,-51.71306,-44.93611,1005.2,-999.00,-999.0,yes,no,no,123280,SVPBD2,AOML,PHAROS_SG,South
2014-03-27T18:20:00Z,1395944401,2014,18,20,86.7639,86.7314,-51.71306,-44.93611,1004.2,-999.00,-999.0,yes,no,no,123280,SVPBD2,AOML,PHAROS_SG,South
2014-03-27T19:20:03Z,1395948004,2014,19,20,86.8056,86.8704,-51.69833,-44.93306,1003.4,-999.00,-999.0,yes,no,no,123280,SVPBD2,AOML,PHAROS_SG,South
2014-03-27T20:19:58Z,1395951598,2014,20,20,86.8472,86.8704,-51.69833,-44.93306,1003.2,-999.00,-999.0,yes,no,no,123280,SVPBD2,AOML,PHAROS_SG,South
2014-03-27T21:20:00Z,1395955201,2014,21,20,86.8889,86.8721,-51.69583,-44.89139,1002.1,-999.00,-999.0,yes,no,no,123280,SVPBD2,AOML,PHAROS_SG,South
2014-03-27T22:20:03Z,1395958804,2014,22,20,86.9306,86.8721,-51.69583,-44.89139,1000.8,-999.00,-999.0,yes,no,no,123280,SVPBD2,AOML,PHAROS_SG,South
2014-03-27T23:19:58Z,1395962398,2014,23,20,86.9722,86.9951,-51.685,-44.89278,999.8,-999.00,-999.0,yes,no,no,123280,SVPBD2,AOML,PHAROS_SG,South
2014-03-28T00:20:00Z,1395966001,2014,0,20,87.0139,86.9951,-51.685,-44.89278,998.8,-999.00,-999.0,yes,no,no,123280,SVPBD2,AOML,PHAROS_SG,South
2014-03-28T01:20:03Z,1395969604,2014,1,20,87.0556,87.0646,-51.68167,-44.88222,998.0,-999.00,-999.0,yes,no,no,123280,SVPBD2,AOML,PHAROS_SG,South
2014-03-28T02:19:58Z,1395973198,2014,2,20,87.0972,87.0646,-51.68167,-44.88222,997.2,-999.00,-999.0,yes,no,no,123280,SVPBD2,AOML,PHAROS_SG,South
2014-03-28T03:20:00Z,1395976801,2014,3,20,87.1389,87.0646,-51.68167,-44.88222,996.4,-999.00,-999.0,yes,no,no,123280,SVPBD2,AOML,PHAROS_SG,South
2014-03-28T04:20:03Z,1395980404,2014,4,20,87.1806,87.0646,-51.68167,-44.88222,996.2,-999.00,-999.0,yes,no,no,123280,SVPBD2,AOML,PHAROS_SG,South
2014-03-28T05:19:58Z,1395983998,2014,5,20,87.2222,87.375,-51.6375,-44.90111,996.1,-999.00,-999.0,yes,no,no,123280,SVPBD2,AOML,PHAROS_SG,South
2014-03-28T06:20:00Z,1395987601,2014,6,20,87.2639,87.375,-51.63194,-44.90194,995.5,-999.00,-999.0,yes,no,no,123280,SVPBD2,AOML,PHAROS_SG,South
2014-03-28T07:20:03Z,1395991204,2014,7,20,87.3056,87.375,-51.63194,-44.90194,995.9,-999.00,-999.0,yes,no,no,123280,SVPBD2,AOML,PHAROS_SG,South
2014-03-28T08:19:58Z,1395994798,2014,8,20,87.3472,87.375,-51.63194,-44.90194,996.1,-999.00,-999.0,yes,no,no,123280,SVPBD2,AOML,PHAROS_SG,South